Create Custom Reports and Graphics: Custom Report

Belmont 8000'

Squaw Valley

1/15/21 12:30 PM (-08:00)
Updated Every 15 Minutes
Temp 50.3 °F   0.3
RH 19 %   7
Dew Pt 10.2 °F   7.5
Wet Bulb 34.9 °F   1.8
Wind Dir WSW | 243 °
Wind Spd 12.0 mph   9.8
Wind Gust 19.2 mph   13.1
WindChill 48.4 °F   1.5
Daily Min Temp 44.3 °F   9.5
Daily Max Temp 55.0 °F   4.2
Latest Rain 0.00 In
Daily Rain 0.00 In
New Snow 0.0 in
SnowDepth 45.3 in

Last 24 Hours

Squaw-Belmont 8000'

Hourly Data | America/Los_Angeles
as of 1/15/21 12:38 PM PST
Date & Time Temp (°F) RH (%) Dew Pt (°F) Wet Bulb (°F) Wind Dir (°) Wind Spd (mph) Wind Gust (mph) WindChill (°F) Latest Rain (In) New Snow (in) SnowDepth (in) Daily Min Temp (°F) Daily Max Temp (°F) Daily Rain (In)
1/15/21 - 1200 53.5 19 12.8 37.1 SW | 231 10.7 19.1 50.9 0.00 0.0 45.3 44.3 55.0 0.00
1/15/21 - 1100 51.4 20 12.0 35.8 SW | 231 10.0 18.0 51.3 0.00 0.0 45.4 44.3 54.9 0.00
1/15/21 - 1000 53.2 16 7.5 35.9 SW | 229 8.3 15.0 53.1 0.00 0.0 45.4 44.3 54.9 0.00
1/15/21 - 0900 53.8 14 5.3 35.9 SW | 226 7.6 15.0 49.3 0.00 0.0 45.4 44.3 53.8 0.00
1/15/21 - 0800 50.4 16 6.3 34.3 WSW | 246 4.7 11.8 49.9 0.00 0.0 45.4 44.3 51.6 0.00
1/15/21 - 0700 50.8 12 -0.7 33.4 WSW | 250 3.3 6.7 49.6 0.00 0.0 45.4 44.3 50.8 0.00
1/15/21 - 0600 48.9 10 -5.7 31.9 WNW | 291 3.3 6.9 47.8 0.00 0.0 45.4 44.3 49.6 0.00
1/15/21 - 0500 48.4 12 -2.5 31.9 WNW | 296 2.9 5.3 47.5 0.00 0.0 45.4 44.3 49.2 0.00
1/15/21 - 0400 48.7 15 3.8 33.0 W | 268 1.9 5.5 48.0 0.00 0.0 45.4 44.3 49.2 0.00
1/15/21 - 0300 46.8 17 4.1 32.0 NW | 316 4.9 7.5 44.9 0.00 0.0 45.4 44.3 48.3 0.00
1/15/21 - 0200 47.9 17 5.2 32.7 SW | 236 1.7 4.8 47.3 0.00 0.0 45.4 44.3 48.3 0.00
1/15/21 - 0100 46.3 30 16.5 34.2 SSW | 205 1.8 3.8 46.1 0.00 0.0 45.4 44.3 47.0 0.00
1/15/21 - 0000 44.3 35 18.4 33.7 N | 9 0.5 4.2 43.5 0.00 0.0 45.6 34.9 51.6 0.00
1/14/21 - 2300 43.6 39 20.5 33.9 SSE | 166 0.9 3.8 45.3 0.00 0.0 45.6 34.9 51.6 0.00
1/14/21 - 2200 45.9 35 20.0 35.0 SW | 234 0.2 2.1 44.8 0.00 0.0 45.5 34.9 51.6 0.00
1/14/21 - 2100 44.2 35 18.3 33.6 NNE | 13 0.7 2.5 44.1 0.00 0.0 45.6 34.9 51.6 0.00
1/14/21 - 2000 44.0 36 18.5 33.6 SW | 220 0.4 3.8 44.0 0.00 0.0 45.5 34.9 51.6 0.00
1/14/21 - 1900 42.1 30 12.6 31.0 N | 349 1.5 3.9 42.2 0.00 0.0 45.6 34.9 51.6 0.00
1/14/21 - 1800 42.9 30 13.2 31.6 ENE | 68 0.9 4.1 42.7 0.00 0.0 45.7 34.9 51.6 0.00
1/14/21 - 1700 43.0 32 14.9 32.0 ENE | 62 2.2 6.0 43.7 0.00 0.0 45.7 34.9 51.6 0.00
1/14/21 - 1600 45.4 30 16.1 33.6 ENE | 76 2.5 9.5 45.7 0.00 0.0 45.6 34.9 51.6 0.00
1/14/21 - 1500 47.5 30 17.6 35.1 ESE | 122 3.1 9.1 48.4 0.00 0.0 45.6 34.9 51.6 0.00
1/14/21 - 1400 47.8 28 16.0 34.8 E | 81 4.2 8.5 47.0 0.00 0.0 45.7 34.9 50.9 0.00
1/14/21 - 1300 48.9 27 16.4 35.5 ESE | 108 3.1 9.2 48.8 0.00 0.0 45.6 34.9 50.9 0.00
1/14/21 - 1200 48.2 31 19.1 35.9 ESE | 108 4.5 10.6 45.5 0.00 0.0 45.8 34.9 49.2 0.00
Max 53.8 39 20.5 37.1 - 10.7 19.1 53.1 0.00 0.0 45.8 44.3 55.0 0.00
Avg 47.5 25 11.5 33.9 - 3.4 7.9 46.9 0.00 0.0 45.5 - - -
Min 42.1 10 -5.7 31.0 - 0.2 2.1 42.2 0.00 0.0 45.3 34.9 47.0 0.00
Total - - - - - - - - 0.00 - - - - -

Last 30 Days

Squaw-Belmont 8000'

Daily Data | America/Los_Angeles
as of 1/15/21 12:38 PM PST
Date Daily Max Temp (°F) Time of Max Temp Daily Min Temp (°F) Time of Min Temp Daily Rain (In) Seasonal Rainfall (In) New Snow (in) SnowDepth (in) Wind Spd (mph) Daily Max Wind (mph) Time of Max Wind Max Wind Dir (°) Max RH (%) Min RH (%) Wet Bulb (°F) WetB Hrs <28F (hrs) Bat Volt Min Day (V)
1/14/21 51.6 1423 34.9 0223 0.00 110.80 0.0 45.6 1.6 10.6 1115 E | 85 67 4 31.4 5.4 13.0
1/13/21 40.3 1336 34.8 2043 0.12 110.80 0.0 46.0 7.1 27.7 0524 SSW | 204 100 29 34.8 0.2 13.0
1/12/21 39.2 1248 29.7 1910 0.04 110.70 0.0 47.4 12.7 30.8 0512 SSE | 164 100 24 28.1 15.4 13.0
1/11/21 53.3 1344 32.0 0010 0.00 110.70 0.0 47.0 4.8 20.4 1956 SW | 236 54 8 28.1 14.8 13.0
1/10/21 39.4 1227 28.0 2216 0.00 110.70 0.0 47.2 5.7 22.0 0452 SW | 232 96 41 29.8 5.6 13.0
1/9/21 38.2 2334 19.0 0541 0.00 110.70 0.0 47.7 2.4 10.2 2143 NW | 325 98 8 23.0 21.8 13.1
1/8/21 35.4 0053 18.4 2307 0.15 110.70 0.0 48.1 9.9 34.1 1538 S | 180 100 11 24.5 18.6 13.1
1/7/21 43.4 1336 25.6 0624 0.00 110.50 0.0 48.0 3.7 24.1 0008 NW | 313 49 6 23.1 22.6 13.0
1/6/21 38.2 1136 27.4 2019 0.00 110.50 0.0 48.4 11.0 36.3 1422 SW | 226 91 12 24.4 23.8 13.0
1/5/21 41.6 1221 20.0 0438 0.42 110.50 0.0 48.7 4.8 21.6 0147 SSW | 206 98 14 22.6 22.4 13.1
1/4/21 32.2 1351 21.5 2322 1.26 110.10 10.9 49.9 16.4 48.0 1801 NE | 45 100 61 27.2 9.6 13.1
1/3/21 35.5 1330 25.3 0350 0.10 108.80 0.0 42.5 7.4 23.5 2319 SE | 133 100 61 27.7 13.2 13.0
1/2/21 31.5 1442 24.3 0509 0.14 108.70 0.0 42.3 10.2 36.6 0139 S | 188 100 69 28.0 10.4 13.0
1/1/21 45.5 0937 20.8 0140 0.00 108.60 1.8 41.9 8.1 34.4 2102 SSW | 194 99 9 24.6 17.0 13.0
12/31/20 26.7 1241 19.0 0901 0.32 108.60 0.0 43.2 7.1 38.7 0023 SW | 221 99 81 21.5 24.0 13.1
12/30/20 35.9 1334 20.7 1907 0.05 108.30 3.7 41.5 10.7 37.6 2327 WSW | 242 98 9 21.0 24.0 13.1
12/29/20 35.7 1235 13.1 0721 0.00 108.20 0.0 41.8 3.0 10.3 1706 NNE | 21 98 17 18.0 24.0 13.1
12/28/20 24.4 1414 17.4 2355 0.08 108.20 0.0 42.5 3.4 12.9 1912 ENE | 67 98 96 19.7 24.0 13.1
12/27/20 31.0 1155 18.6 0222 0.00 108.10 0.0 42.2 3.6 16.5 1929 ESE | 104 100 63 21.1 24.0 13.1
12/26/20 27.2 0034 18.2 2115 1.00 108.10 0.0 43.2 8.5 42.9 0154 W | 260 100 69 22.1 24.0 13.1
12/25/20 35.5 1226 26.6 2330 0.69 107.10 5.1 38.9 15.8 49.0 2137 NE | 39 99 24 26.6 18.3 13.1
12/24/20 45.4 1314 29.2 1821 0.00 106.40 0.0 33.7 7.6 23.5 2142 SW | 227 44 11 24.7 21.6 13.0
12/23/20 37.6 1304 18.8 0428 0.00 106.40 0.0 33.9 3.6 19.8 0911 E | 97 88 13 20.9 24.0 13.1
12/22/20 49.6 1209 21.1 2353 0.04 106.40 0.0 34.2 7.1 47.5 0153 WSW | 238 99 12 23.5 21.1 13.0
12/21/20 48.8 1202 32.5 2332 0.00 106.40 0.0 34.6 8.7 36.7 2253 SW | 215 32 10 28.4 7.3 13.0
12/20/20 53.9 1326 38.9 0030 0.00 106.40 0.0 35.0 4.9 18.1 0458 NW | 313 23 10 29.6 4.7 13.0
12/19/20 47.1 1233 34.4 0640 0.00 106.40 0.0 35.8 8.4 20.2 0106 WSW | 238 48 9 27.5 17.5 13.0
12/18/20 38.7 1214 15.9 0330 0.00 106.40 0.0 36.6 3.5 17.9 2313 WNW | 291 98 18 22.8 23.0 13.1
12/17/20 32.0 0003 16.3 2334 0.87 106.40 0.0 37.2 7.9 34.8 0133 SSW | 203 99 44 23.3 23.8 13.1
12/16/20 44.7 1139 30.3 0624 0.00 105.50 0.0 32.8 8.4 30.1 1935 SW | 234 98 20 27.8 14.9 13.0
Max 53.9 - 38.9 - 1.26 - 10.9 49.9 16.4 49.0 - - 100 96 34.8 24.0 13.1
Avg - - - - - - 0.7 41.9 7.3 - - - - - 25.2 - -
Min 24.4 - 13.1 - 0.00 - 0.0 32.8 1.6 10.2 - - 23 4 18.0 0.2 13.0
Calm: 0.0%
Calm: 0.0%